TimeEST,TemperatureF,Dew PointF,Humidity,Sea Level PressureIn,VisibilityMPH,Wind Direction,Wind SpeedMPH,Gust SpeedMPH,PrecipitationIn,Events,Conditions,WindDirDegrees,DateUTC
12:15 AM,39.2,35.6,87,30.40,10.0,Calm,Calm,-,N/A,,Clear,0,2013-01-10 05:15:00
12:35 AM,44.6,33.8,66,30.40,10.0,NNW,4.6,-,N/A,,Clear,330,2013-01-10 05:35:00
12:55 AM,37.4,33.8,87,30.41,10.0,SE,3.5,-,N/A,,Clear,140,2013-01-10 05:55:00
1:15 AM,37.4,33.8,87,30.41,10.0,Calm,Calm,-,N/A,,Clear,0,2013-01-10 06:15:00
1:35 AM,37.4,32.0,81,30.42,10.0,Calm,Calm,-,N/A,,Clear,0,2013-01-10 06:35:00
1:55 AM,35.6,30.2,81,30.42,10.0,Calm,Calm,-,N/A,,Clear,0,2013-01-10 06:55:00
3:15 AM,33.8,30.2,87,30.45,10.0,Calm,Calm,-,N/A,,Clear,0,2013-01-10 08:15:00
3:35 AM,33.8,28.4,81,30.44,10.0,Calm,Calm,-,N/A,,Clear,0,2013-01-10 08:35:00
3:55 AM,33.8,30.2,87,30.44,10.0,Calm,Calm,-,N/A,,Clear,0,2013-01-10 08:55:00
4:15 AM,33.8,28.4,81,30.45,10.0,Calm,Calm,-,N/A,,Clear,0,2013-01-10 09:15:00
4:35 AM,33.8,28.4,81,30.45,10.0,Calm,Calm,-,N/A,,Clear,0,2013-01-10 09:35:00
4:55 AM,32.0,28.4,87,30.45,10.0,Calm,Calm,-,N/A,,Clear,0,2013-01-10 09:55:00
5:15 AM,30.2,28.4,93,30.46,10.0,Calm,Calm,-,N/A,,Clear,0,2013-01-10 10:15:00
5:35 AM,30.2,28.4,93,30.47,10.0,Calm,Calm,-,N/A,,Clear,0,2013-01-10 10:35:00
5:55 AM,32.0,28.4,87,30.48,10.0,Calm,Calm,-,N/A,,Clear,0,2013-01-10 10:55:00
6:15 AM,32.0,28.4,87,30.49,10.0,NNE,4.6,-,N/A,,Clear,20,2013-01-10 11:15:00
6:35 AM,30.2,26.6,86,30.50,10.0,Calm,Calm,-,N/A,,Clear,0,2013-01-10 11:35:00
6:55 AM,33.8,26.6,75,30.52,10.0,Calm,Calm,-,N/A,,Clear,0,2013-01-10 11:55:00
7:35 AM,28.4,28.4,100,30.53,10.0,Calm,Calm,-,N/A,,Clear,0,2013-01-10 12:35:00
7:55 AM,28.4,28.4,100,30.55,10.0,WNW,3.5,-,N/A,,Clear,290,2013-01-10 12:55:00
8:15 AM,30.2,28.4,93,30.56,10.0,Calm,Calm,-,N/A,,Clear,0,2013-01-10 13:15:00
8:35 AM,35.6,30.2,81,30.57,10.0,Calm,Calm,-,N/A,,Clear,0,2013-01-10 13:35:00
8:55 AM,39.2,32.0,75,30.58,10.0,Calm,Calm,-,N/A,,Clear,0,2013-01-10 13:55:00
9:35 AM,46.4,32.0,57,30.59,10.0,North,3.5,-,N/A,,Clear,10,2013-01-10 14:35:00
9:55 AM,48.2,30.2,50,30.59,10.0,North,3.5,-,N/A,,Clear,10,2013-01-10 14:55:00
10:15 AM,51.8,30.2,44,30.59,10.0,NNE,6.9,-,N/A,,Clear,20,2013-01-10 15:15:00
10:35 AM,53.6,28.4,38,30.59,10.0,North,8.1,-,N/A,,Clear,360,2013-01-10 15:35:00
10:55 AM,53.6,28.4,38,30.58,10.0,North,6.9,-,N/A,,Clear,10,2013-01-10 15:55:00
11:15 AM,55.4,26.6,33,30.57,10.0,North,8.1,-,N/A,,Clear,10,2013-01-10 16:15:00
11:35 AM,55.4,28.4,36,30.56,10.0,North,8.1,-,N/A,,Clear,10,2013-01-10 16:35:00
11:55 AM,55.4,28.4,36,30.55,10.0,North,5.8,-,N/A,,Clear,360,2013-01-10 16:55:00
12:15 PM,55.4,26.6,33,30.53,10.0,North,3.5,-,N/A,,Clear,360,2013-01-10 17:15:00
12:35 PM,55.4,26.6,33,30.52,10.0,NNE,3.5,-,N/A,,Clear,30,2013-01-10 17:35:00
12:55 PM,57.2,26.6,31,30.52,10.0,NNE,5.8,-,N/A,,Clear,30,2013-01-10 17:55:00
1:15 PM,57.2,26.6,31,30.51,10.0,NE,4.6,-,N/A,,Clear,50,2013-01-10 18:15:00
1:35 PM,57.2,26.6,31,30.51,10.0,NNE,6.9,-,N/A,,Clear,20,2013-01-10 18:35:00
1:55 PM,59.0,26.6,29,30.51,10.0,NNE,3.5,-,N/A,,Clear,20,2013-01-10 18:55:00
2:15 PM,59.0,26.6,29,30.51,10.0,East,4.6,-,N/A,,Clear,80,2013-01-10 19:15:00
2:35 PM,57.2,26.6,31,30.50,10.0,ESE,3.5,-,N/A,,Clear,110,2013-01-10 19:35:00
2:55 PM,57.2,26.6,31,30.50,10.0,Calm,Calm,-,N/A,,Clear,0,2013-01-10 19:55:00
3:15 PM,57.2,26.6,31,30.50,10.0,East,4.6,-,N/A,,Clear,80,2013-01-10 20:15:00
3:35 PM,55.4,26.6,33,30.50,10.0,Calm,Calm,-,N/A,,Clear,0,2013-01-10 20:35:00
3:55 PM,55.4,28.4,36,30.50,10.0,Calm,Calm,-,N/A,,Clear,0,2013-01-10 20:55:00
4:15 PM,55.4,28.4,36,30.51,10.0,Calm,Calm,-,N/A,,Clear,0,2013-01-10 21:15:00
4:35 PM,53.6,28.4,38,30.51,10.0,Calm,Calm,-,N/A,,Clear,0,2013-01-10 21:35:00
4:55 PM,53.6,26.6,35,30.50,10.0,Calm,Calm,-,N/A,,Clear,0,2013-01-10 21:55:00
5:15 PM,53.6,26.6,35,30.50,10.0,Calm,Calm,-,N/A,,Clear,0,2013-01-10 22:15:00
5:35 PM,51.8,24.8,35,30.50,10.0,Calm,Calm,-,N/A,,Clear,0,2013-01-10 22:35:00
5:55 PM,51.8,26.6,38,30.51,10.0,Calm,Calm,-,N/A,,Clear,0,2013-01-10 22:55:00
6:15 PM,48.2,28.4,46,30.52,10.0,Calm,Calm,-,N/A,,Clear,0,2013-01-10 23:15:00
6:35 PM,46.4,28.4,50,30.51,10.0,Calm,Calm,-,N/A,,Clear,0,2013-01-10 23:35:00
6:55 PM,46.4,28.4,50,30.52,10.0,Calm,Calm,-,N/A,,Clear,0,2013-01-10 23:55:00
7:15 PM,44.6,30.2,57,30.51,10.0,Calm,Calm,-,N/A,,Clear,0,2013-01-11 00:15:00
7:35 PM,44.6,32.0,61,30.51,10.0,Calm,Calm,-,N/A,,Clear,0,2013-01-11 00:35:00
7:55 PM,42.8,33.8,70,30.51,10.0,Calm,Calm,-,N/A,,Clear,0,2013-01-11 00:55:00
8:15 PM,42.8,30.2,61,30.51,10.0,Calm,Calm,-,N/A,,Clear,0,2013-01-11 01:15:00
8:35 PM,41.0,32.0,70,30.51,10.0,Calm,Calm,-,N/A,,Clear,0,2013-01-11 01:35:00
8:55 PM,41.0,30.2,65,30.51,10.0,Calm,Calm,-,N/A,,Clear,0,2013-01-11 01:55:00
9:15 PM,41.0,30.2,65,30.50,10.0,Calm,Calm,-,N/A,,Clear,0,2013-01-11 02:15:00
9:35 PM,39.2,30.2,70,30.50,10.0,Calm,Calm,-,N/A,,Clear,0,2013-01-11 02:35:00
9:55 PM,41.0,30.2,65,30.50,10.0,Calm,Calm,-,N/A,,Clear,0,2013-01-11 02:55:00
10:15 PM,39.2,30.2,70,30.50,10.0,Calm,Calm,-,N/A,,Clear,0,2013-01-11 03:15:00
10:35 PM,39.2,30.2,70,30.51,10.0,Calm,Calm,-,N/A,,Clear,0,2013-01-11 03:35:00
10:55 PM,39.2,30.2,70,30.50,10.0,Calm,Calm,-,N/A,,Clear,0,2013-01-11 03:55:00
11:15 PM,39.2,30.2,70,30.50,10.0,Calm,Calm,-,N/A,,Clear,0,2013-01-11 04:15:00
11:35 PM,37.4,33.8,87,30.50,10.0,Calm,Calm,-,N/A,,Clear,0,2013-01-11 04:35:00
11:55 PM,37.4,30.2,75,30.51,10.0,Calm,Calm,-,N/A,,Clear,0,2013-01-11 04:55:00